Simultaneous Nadir Overpasses (SNOs) Predictions

Prediction of SNOs between GOES-16 and METOP-B Satellite Orbit:

Table of predicted SNOs for the next 14.0 days since TLE Epoch: 5/2/2020
Index Date Time (GOES-16) GOES-16 Lat,Lon METOP-B Lat,Lon Distance(km) Time Diff (sec)
1 05/03/2020 14:31:16 0.03, -75.21 -0.04, -74.86 39.59 80
2 05/05/2020 02:50:17 -0.03, -75.19 -0.96, -79.46 486.25 80
3 05/06/2020 02:26:58 -0.03, -75.20 0.15, -74.47 83.35 80
4 05/07/2020 14:45:49 0.03, -75.23 0.88, -79.03 432.87 80
5 05/08/2020 14:27:50 0.03, -75.24 -0.23, -74.03 137.00 80
6 05/10/2020 02:46:51 -0.02, -75.23 -0.77, -78.64 388.12 80
7 05/11/2020 02:23:31 -0.02, -75.24 0.34, -73.64 181.87 80
8 05/12/2020 14:42:23 0.01, -75.28 0.68, -78.20 333.61 80
9 05/13/2020 14:24:24 0.01, -75.29 -0.48, -73.22 236.99 80
10 05/15/2020 02:43:25 -0.00, -75.30 -0.57, -77.81 286.66 80
11 05/16/2020 02:20:05 -0.00, -75.31 0.53, -72.81 284.35 80




NCC Satellite Simultaneous Nadir Overpasses (SNOs) Prediction Service
